Flag for China Weather past 2 weeks in Hangzhou, Zhejiang, China

Now
72 °F

Sprinkles. Fog.


Feels Like: 69 °F
Forecast: 70 / 76 °F
Wind: 13 mph from North

Location: Hangzhou Airport

Current Time: Sep 22, 2014 at 10:51:37 PM

Latest Report: Sep 22, 2014 at 10:30 PM


Visibility: 2 mi

Pressure: 29.74 "Hg

Humidity: 88%

Dew point: 68 °F

Location of HangzhouLocation

Historic Weather in Hangzhou — Graph

°F

Hangzhou temperature yesterday

Maximum temperature yesterday: 79 °F (at 11:30 AM)
Minimum temperature yesterday: 70 °F (at 2:30 AM)
Average temperature yesterday: 74 °F

Past Weeks' High & Low Weather Summary

 TemperatureHumidityPressure
High91 °F (Sep 12, 2:00 PM)89% (Sep 10, 5:00 AM)30.01 "Hg (Sep 10, 5:00 AM)
Low63 °F (Sep 19, 8:00 AM)51% (Sep 20, 12:00 PM)29.68 "Hg (Sep 12, 2:30 PM)
Average75 °F77%29.87 "Hg
* Reported Sep 7 10:00 PM — Sep 22 10:00 PM, Hangzhou, Weather by CustomWeather, © 2014

Note: Actual official high and low records may vary slightly from our data, if they occured in-between our weather recording intervals... More about our weather records

Advertising

Hangzhou weather history for previous 24 hours

 ConditionsComfort  
Time TempWeatherWind HumidityBarometerVisibility
10:00 PM
Sep 22
72 °FSprinkles. Fog.13 mph88%29.77 "Hg2 mi
9:30 PM72 °FSprinkles. Fog.13 mph88%29.77 "Hg2 mi
9:00 PM72 °FSprinkles. Fog.15 mph88%29.80 "Hg2 mi
8:30 PM72 °FSprinkles. Fog.13 mph88%29.77 "Hg2 mi
8:00 PM72 °FSprinkles. Fog.13 mph88%29.77 "Hg2 mi
7:30 PM72 °FSprinkles. Fog.13 mph88%29.77 "Hg2 mi
7:00 PM72 °FSprinkles. Fog.13 mph88%29.77 "Hg2 mi
6:30 PM72 °FSprinkles. Fog.15 mph88%29.77 "Hg2 mi
6:00 PM72 °FLight rain. Fog.13 mph88%29.77 "Hg2 mi
5:30 PM72 °FLight rain. Fog.13 mph88%29.77 "Hg2 mi
5:00 PM72 °FLight rain. Fog.13 mph88%29.77 "Hg2 mi
4:30 PM72 °FLight rain. Fog.13 mph88%29.77 "Hg2 mi
4:00 PM72 °FLight rain. Fog.13 mph88%29.77 "Hg2 mi
3:30 PM72 °FLight rain. Fog.13 mph88%29.77 "Hg2 mi
3:00 PM72 °FLight rain. Fog.13 mph88%29.80 "Hg2 mi
2:30 PM72 °FLight rain. Fog.13 mph88%29.80 "Hg3 mi
2:00 PM72 °FLight rain. Partly sunny.13 mph88%29.80 "Hg4 mi
1:30 PM72 °FLight rain. Partly sunny.17 mph83%29.80 "Hg4 mi
1:00 PM72 °FLight rain. Partly sunny.13 mph83%29.80 "Hg4 mi
12:30 PM72 °FLight rain. Partly sunny.17 mph83%29.80 "Hg4 mi
12:00 PM72 °FLight rain. Fog.17 mph83%29.83 "Hg3 mi
11:30 AM72 °FLight rain. Fog.15 mph83%29.86 "Hg3 mi
11:00 AM72 °FLight rain. Fog.15 mph83%29.86 "Hg3 mi
10:30 AM72 °FLight rain. Fog.15 mph83%29.86 "Hg3 mi
10:00 AM72 °FLight rain. Fog.13 mph83%29.89 "Hg3 mi
9:30 AM70 °FLight rain. Fog.13 mph88%29.89 "Hg3 mi
9:00 AM70 °FLight rain. Fog.13 mph88%29.89 "Hg3 mi
8:30 AM70 °FLight rain. Fog.13 mph83%29.89 "Hg3 mi
8:00 AM70 °FLight rain. Partly sunny.10 mph83%29.89 "Hg4 mi
7:30 AM68 °FLight rain. Fog.10 mph88%29.89 "Hg3 mi
7:00 AM70 °FLight rain. Fog.13 mph83%29.89 "Hg2 mi
6:30 AM70 °FBroken clouds.13 mph83%29.89 "HgN/A
6:00 AM72 °FBroken clouds.13 mph78%29.89 "HgN/A
5:30 AM72 °FPassing clouds.13 mph78%29.89 "Hg5 mi
5:00 AM72 °FPassing clouds.13 mph78%29.89 "Hg5 mi
4:30 AM70 °FPassing clouds.10 mph83%29.89 "Hg4 mi
4:00 AM70 °FPassing clouds.10 mph83%29.89 "Hg4 mi
3:30 AM72 °FPassing clouds.10 mph78%29.89 "Hg5 mi
3:00 AM72 °FPassing clouds.10 mph73%29.89 "HgN/A
2:30 AM72 °FPassing clouds.10 mph73%29.89 "HgN/A
2:00 AM72 °FPassing clouds.10 mph73%29.89 "HgN/A
1:30 AM72 °FPassing clouds.8 mph73%29.92 "HgN/A
1:00 AM72 °FPassing clouds.8 mph73%29.92 "HgN/A
12:30 AM72 °FPassing clouds.8 mph73%29.92 "HgN/A
12:00 AM72 °FPassing clouds.8 mph73%29.92 "HgN/A
11:30 PM
Sep 21
72 °FPassing clouds.6 mph73%29.95 "Hg5 mi
11:00 PM73 °FPassing clouds.8 mph65%29.95 "HgN/A
10:30 PM73 °FPassing clouds.8 mph65%29.95 "HgN/A
10:00 PM73 °FPassing clouds.10 mph65%29.95 "HgN/A
Weather by CustomWeather, © 2014

See weather overviewHow to use our weather pages